Home   Weather   Germany   Rottenburg am Neckar   Past weeks
Flag for Germany

Past Weather in Rottenburg am Neckar, Baden-Württemberg, Germany — Yesterday and Last 2 Weeks

Currently: 30 °F. Clear. (Weather station: Stuttgart-Echterdingen, Germany). See more current weather

Past Weather in Rottenburg am Neckar — Graph

°F

Rottenburg am Neckar Temperature Yesterday

Maximum temperature yesterday: 48 °F (at 2:20 pm)
Minimum temperature yesterday: 23 °F (at 4:50 am)
Average temperature yesterday: 36 °F

High & Low Weather Summary for the Past Weeks

 TemperatureHumidityPressure
High70 °F (Feb 25, 3:50 pm)100% (Feb 21, 5:20 am)30.60 "Hg (Feb 21, 5:20 am)
Low23 °F (Mar 6, 6:20 am)31% (Feb 25, 4:50 pm)30.01 "Hg (Feb 21, 3:20 pm)
Average42 °F71%30.35 "Hg
* Reported Feb 20 11:20 pm — Mar 7 11:50 pm, Rottenburg am Neckar. Weather by CustomWeather, © 2021

Note: Actual official high and low records may vary slightly from our data, if they occured in-between our weather recording intervals... More about our weather records

Rottenburg am Neckar Weather History for the Previous 24 Hours

Scroll right to see more
 ConditionsComfort  
Time TempWeatherWind HumidityBarometerVisibility
11:50 pm
Sun, Mar 7
30 °FClear.3 mph80%30.12 "Hg10 mi
11:20 pm30 °FPassing clouds.5 mph75%30.12 "HgN/A
10:50 pm32 °FPassing clouds.2 mph75%30.12 "HgN/A
10:20 pm34 °FPassing clouds.2 mph70%30.12 "HgN/A
9:50 pm37 °FPassing clouds.2 mph65%30.09 "HgN/A
9:20 pm37 °FPassing clouds.2 mph65%30.12 "HgN/A
8:50 pm37 °FPassing clouds.5 mph65%30.09 "HgN/A
8:20 pm39 °FClear.2 mph61%30.09 "Hg10 mi
7:50 pm39 °FClear.5 mph61%30.09 "Hg10 mi
7:20 pm41 °FClear.6 mph57%30.09 "Hg10 mi
6:50 pm41 °FClear.6 mph53%30.09 "Hg10 mi
6:20 pm43 °FClear.7 mph49%30.09 "Hg10 mi
5:50 pm45 °FSunny.6 mph49%30.07 "Hg10 mi
5:20 pm46 °FSunny.7 mph46%30.07 "Hg10 mi
4:50 pm46 °FSunny.6 mph46%30.09 "Hg10 mi
4:20 pm46 °FPassing clouds.5 mph46%30.09 "HgN/A
3:50 pm48 °FPassing clouds.7 mph43%30.09 "HgN/A
3:20 pm46 °FPassing clouds.6 mph46%30.12 "HgN/A
2:50 pm48 °FPassing clouds.8 mph43%30.12 "HgN/A
2:20 pm48 °FPassing clouds.8 mph43%30.12 "HgN/A
1:20 pm46 °FPassing clouds.6 mph46%30.15 "HgN/A
12:50 pm46 °FPassing clouds.7 mph50%30.15 "HgN/A
12:20 pm46 °FPassing clouds.3 mph50%30.18 "HgN/A
11:50 am45 °FPassing clouds.3 mph49%30.18 "HgN/A
11:20 am43 °FPassing clouds.2 mph53%30.18 "HgN/A
10:50 am41 °FPassing clouds.2 mph53%30.18 "HgN/A
10:20 am39 °FPassing clouds.2 mph56%30.21 "HgN/A
9:50 am37 °FPassing clouds.1 mph60%30.21 "HgN/A
9:20 am36 °FPassing clouds.1 mph60%30.21 "HgN/A
8:50 am34 °FSunny.2 mph56%30.21 "Hg10 mi
8:20 am32 °FSunny.1 mph60%30.21 "Hg10 mi
7:50 am28 °FSunny.2 mph69%30.21 "Hg10 mi
7:20 am23 °FSunny.2 mph80%30.21 "Hg10 mi
6:50 am23 °FClear.3 mph74%30.21 "Hg10 mi
6:20 am23 °FClear.No wind74%30.24 "Hg10 mi
5:50 am23 °FClear.2 mph80%30.24 "Hg10 mi
5:20 am23 °FClear.2 mph74%30.24 "Hg10 mi
4:50 am23 °FClear.2 mph74%30.24 "Hg10 mi
3:50 am25 °FClear.1 mph69%30.27 "Hg10 mi
3:20 am25 °FClear.1 mph69%30.27 "Hg10 mi
2:50 am25 °FClear.1 mph74%30.27 "Hg10 mi
2:20 am27 °FClear.2 mph69%30.30 "Hg10 mi
1:50 am25 °FClear.2 mph74%30.30 "Hg10 mi
1:20 am27 °FClear.2 mph69%30.30 "Hg10 mi
12:50 am27 °FClear.1 mph64%30.30 "Hg10 mi
12:20 am28 °FClear.2 mph64%30.33 "Hg10 mi
Weather by CustomWeather, © 2021

See weather overview